This demonstration page uses our WeatherBlox Daily Observations layout. Learn more.

Left ArrowRight Arrow

Hourly Observations for November 7, 2022

Temp ( °F °C ) Dew Point ( °F °C ) Humidity (%) Winds ( mph kmh ) Pressure ( in mb ) Visibility ( mi km ) Precip ( " mm )
12:53 am 00:53 Clear 56 13.3 33 0.6 42 42 ESE 8 13 29.95 1014 10 16 0.00 0.00
1:53 am 01:53 Clear 54 12.2 34 1.1 47 47 E 8 13 29.95 1014 10 16 0.00 0.00
2:53 am 02:53 Clear 51 10.6 36 2.2 56 56 E 6 9 29.96 1015 10 16 0.00 0.00
3:53 am 03:53 Clear 52 11.1 38 3.3 59 59 ENE 8 13 29.97 1015 10 16 0.00 0.00
4:53 am 04:53 Clear 51 10.6 37 2.8 58 58 NNE 7 11 29.98 1015 10 16 0.00 0.00
5:53 am 05:53 Clear 51 10.6 38 3.3 61 61 NE 5 7 30.01 1016 10 16 0.00 0.00
6:53 am 06:53 Clear 45 7.2 37 2.8 74 74 N 6 9 30.06 1018 10 16 0.00 0.00
7:53 am 07:53 Sunny 51 10.6 41 5 68 68 NE 8 13 30.07 1018 10 16 0.00 0.00
8:53 am 08:53 Sunny 59 15 44 6.7 58 58 E 10 17 30.09 1019 10 16 0.00 0.00
9:31 am 09:31 Mostly Cloudy 61 16.1 46 7.8 58 58 E 10 17 30.10 1019 10 16 0.00 0.00
9:53 am 09:53 Cloudy 63 17.2 50 10 63 63 ESE 8 13 30.09 1019 10 16 0.00 0.00
10:53 am 10:53 Mostly Cloudy 68 20 55 12.8 63 63 SE 15 24 30.09 1019 10 16 0.00 0.00
11:22 am 11:22 Partly Cloudy 70 21.1 56 13.3 61 61 ESE 12 19 30.05 1018 10 16 0.00 0.00
11:53 am 11:53 Mostly Sunny 71 21.7 57 13.9 61 61 ESE 15 24 30.08 1019 10 16 0.00 0.00
12:53 pm 12:53 Partly Cloudy 72 22.2 56 13.3 57 57 SE 14 22 30.05 1018 10 16 0.00 0.00
1:53 pm 13:53 Mostly Sunny 74 23.3 57 13.9 56 56 SSE 9 15 30.01 1016 10 16 0.00 0.00
2:53 pm 14:53 Mostly Sunny 76 24.4 59 15 56 56 SE 15 24 29.98 1015 10 16 0.00 0.00
3:53 pm 15:53 Sunny 77 25 60 15.6 56 56 SSE 10 17 29.97 1015 10 16 0.00 0.00
4:53 pm 16:53 Partly Cloudy 77 25 59 15 54 54 SE 15 24 29.97 1015 10 16 0.00 0.00
5:53 pm 17:53 Sunny 76 24.4 58 14.4 54 54 SE 14 22 29.98 1015 10 16 0.00 0.00
6:53 pm 18:53 Clear 73 22.8 58 14.4 59 59 SE 14 22 30.01 1016 10 16 0.00 0.00
7:53 pm 19:53 Clear 72 22.2 58 14.4 61 61 SE 15 24 30.02 1017 10 16 0.00 0.00
8:53 pm 20:53 Clear 70 21.1 59 15 68 68 SE 13 20 30.02 1017 10 16 0.00 0.00
9:53 pm 21:53 Clear 68 20 58 14.4 70 70 SE 14 22 30.02 1017 10 16 0.00 0.00
10:53 pm 22:53 Clear 67 19.4 59 15 76 76 ESE 12 19 30.01 1016 10 16 0.00 0.00
11:53 pm 23:53 Clear 66 18.9 59 15 78 78 ESE 10 17 30.00 1016 10 16 0.00 0.00

Powered by AerisWeather